Presure
86 87 120 163 165 180 194 163 185 205 142 228 206 208 202 220 252 302 310 302 286 287 312 303 262 223 247 300 308 265 242 235 218 188 192 195 210 226 234 253 309 204 203
118 158 113 154 176 180 173 137 141 189 235 210 196 215 237 280 284 288 264 263 255 265 252 251 251 247 253 268 265 265 264 273 272 271 280 285 298 288 194 197 212 259 281
152 177 185 185 176 139 175 131 212 227 204 206 193 227 218 273 262 252 220 250 242 234 240 230 228 229 232 234 238 228 229 239 245 251 253 253 265 267 276 288 293 204 198
176 181 181 180 139 138 169 214 215 206 200 210 213 227 271 261 256 229 231 239 210 210 217 230 226 227 224 226 225 221 221 223 218 224 232 233 231 233 244 257 258 265 271
178 180 135 136 161 201 214 216 222 205 204 203 226 228 239 255 237 241 239 224 205 227 226 221 225 219 220 217 216 216 216 216 218 223 225 228 224 226 227 229 234 239 248
134 132 140 159 198 212 210 214 206 199 199 212 217 243 256 243 161 224 224 217 229 216 225 209 203 206 200 208 209 215 216 214 213 208 206 212 215 217 230 221 216 221 235
131 135 191 193 206 202 216 213 186 202 202 206 255 236 251 152 229 218 224 209 224 210 218 217 210 197 211 205 204 200 205 202 218 208 205 202 203 215 214 210 215 213 213
190 181 190 199 197 208 210 194 201 191 205 257 241 263 251 244 223 216 221 218 205 207 203 218 210 211 221 200 200 215 217 211 193 207 225 212 212 211 208 201 216 207 211
180 193 198 200 204 210 189 199 190 207 214 271 272 250 233 229 223 224 211 205 199 196 213 202 203 202 205 210 202 206 214 214 206 212 209 206 198 201 210 228 214 204 204
196 198 203 200 208 199 195 186 198 194 248 253 273 251 228 213 218 213 203 193 208 202 192 195 215 222 220 207 208 209 217 219 228 225 226 191 187 214 219 212 223 203 209
201 203 201 196 182 185 197 193 207 205 249 237 245 231 204 201 206 203 207 201 198 192 197 207 206 192 223 223 221 207 213 224 214 222 225 247 216 230 239 235 203 237 201
200 195 185 195 202 196 184 199 201 228 224 227 221 209 201 202 198 191 199 197 184 196 203 196 218 199 203 207 210 220 215 225 235 213 235 220 240 226 238 240 245 252 255
191 184 192 189 194 190 196 200 200 237 219 222 198 202 209 209 201 204 206 219 211 192 205 187 197 206 204 194 203 201 210 204 214 209 204 227 229 222 224 229 232 229 244
186 192 187 170 191 199 195 191 202 226 206 224 203 209 217 211 182 201 212 190 184 210 177 200 188 205 212 218 222 196 206 207 207 213 193 205 230 230 233 238 236 237 263
186 185 170 189 203 187 199 201 212 220 208 211 212 215 205 181 198 207 202 180 193 187 201 174 177 193 198 191 199 206 205 219 210 225 223 223 215 229 238 241 232 248 275
185 160 160 197 188 201 203 194 214 208 220 206 202 202 203 195 174 197 188 193 181 187 197 179 199 193 189 203 220 225 224 233 224 230 224 226 224 230 251 226 266 261 256
156 185 195 187 203 203 195 233 224 201 225 200 207 191 201 206 188 190 191 195 188 196 203 210 193 211 206 196 212 213 210 237 225 231 229 228 230 249 266 259 283 268 281
183 193 200 207 202 205 233 211 205 210 213 203 199 188 184 192 200 190 197 190 201 190 202 198 203 195 191 201 205 221 232 237 236 235 235 247 254 280 278 252 263 288 289
191 202 205 202 210 236 231 220 203 208 196 206 198 198 193 188 181 197 219 209 191 186 192 215 201 200 209 211 230 227 236 233 226 233 242 244 284 284 242 253 289 295 295
200 205 201 222 240 217 208 205 214 200 195 185 196 188 200 178 188 200 201 173 199 207 196 205 195 207 221 219 237 235 234 231 247 243 254 277 291 256 256 296 294 300 298
208 201 238 229 218 221 211 197 193 187 193 193 178 198 181 195 212 190 181 196 212 216 208 223 228 235 227 226 232 241 257 250 248 253 264 245 243 274 283 309 298 309 306
219 247 230 218 200 203 195 178 198 185 181 194 196 193 194 200 183 201 191 218 210 204 217 235 223 227 236 239 240 258 294 279 257 259 233 247 285 315 294 280 300 305 305
245 206 199 205 192 188 185 196 179 185 189 186 194 193 193 185 206 217 169 218 197 241 230 227 241 240 240 236 246 247 245 286 240 283 251 266 290 274 293 301 308 304 295
208 199 181 191 178 193 199 186 167 193 193 201 182 216 213 212 216 218 206 221 237 240 239 247 266 245 245 271 300 308 266 273 271 262 274 291 259 277 291 291 284 295 296
181 187 190 185 195 189 179 185 214 192 148 173 202 204 225 230 236 237 237 239 240 260 265 260 250 253 282 275 271 294 306 307 301 298 297 271 299 289 294 289 288 280 293
190 174 189 188 187 195 200 200 207 148 225 225 224 219 232 243 237 239 247 269 266 256 252 262 270 262 268 284 288 293 285 289 290 287 282 320 305 305 305 295 289 291 287
Wind_Speed
54 53 59 58 60 62 64 64 63 63 60 59 53 53 55 56 49 38 26 25 29 24 14 14 25 43 35 16 14 33 44 48 54 66 66 66 65 63 62 61 58 79 78
60 63 38 60 64 65 63 57 62 61 67 56 56 54 63 48 41 30 32 28 28 22 23 22 22 23 22 16 17 18 20 17 20 23 21 22 20 30 70 69 68 60 65
62 67 68 67 66 56 67 64 64 65 59 58 59 62 54 41 38 35 40 27 27 28 24 26 25 25 23 22 19 26 26 22 21 20 22 25 21 24 24 23 28 73 74
69 70 70 69 58 58 67 69 63 56 58 59 60 64 43 40 36 37 34 28 31 31 31 23 24 22 26 25 26 31 31 30 34 28 24 25 31 31 26 28 32 32 34
71 72 58 60 68 80 74 70 66 57 56 60 66 59 54 38 35 33 31 30 33 29 26 27 23 26 27 28 30 31 32 33 33 29 30 31 35 33 33 34 33 34 35
58 61 62 71 81 77 74 70 61 59 57 66 63 56 38 35 52 35 31 33 28 30 27 33 33 32 33 32 33 32 33 36 36 39 40 39 39 39 36 41 46 44 39
62 61 79 79 77 75 73 69 63 64 63 65 58 50 35 55 33 35 33 34 32 31 30 29 31 34 33 36 38 40 39 40 37 41 43 44 46 45 44 45 46 51 50
79 76 78 77 75 74 68 61 64 64 67 59 57 37 34 32 36 37 33 33 34 35 35 35 36 36 37 39 40 38 37 41 47 43 41 46 48 51 51 52 49 55 55
76 78 77 76 72 70 61 63 61 69 64 47 37 39 36 35 37 34 36 37 38 40 40 41 41 41 42 43 44 44 46 45 47 46 48 51 55 55 54 52 54 60 63
77 76 75 72 73 65 63 60 66 64 57 46 33 33 38 44 39 41 42 43 42 43 43 45 49 51 51 47 49 51 52 52 56 56 58 58 59 57 58 60 59 62 63
72 73 70 69 65 64 67 66 69 68 48 47 35 36 47 48 45 45 46 46 49 48 50 50 50 48 56 57 58 52 56 61 55 62 63 63 59 63 65 68 67 66 69
69 67 67 68 70 68 64 71 69 59 57 48 46 48 51 50 51 53 49 50 53 52 51 52 60 52 55 58 60 67 63 68 66 59 67 65 69 67 71 70 69 69 70
66 67 68 66 68 68 71 71 70 53 59 51 56 56 53 51 55 52 51 50 50 52 55 49 60 64 64 59 64 61 65 59 69 64 60 76 75 72 75 74 73 67 76
66 68 69 61 70 73 72 70 71 59 63 52 59 57 52 54 58 59 53 52 49 59 55 67 58 71 73 75 77 67 72 73 68 74 60 68 79 79 82 80 78 76 79
66 69 64 72 76 71 74 74 72 63 65 60 60 56 60 63 64 62 61 56 64 57 69 65 61 74 73 70 74 80 76 88 73 85 87 86 78 84 84 82 77 80 78
70 61 64 77 73 76 75 73 71 67 63 65 66 67 67 66 62 71 65 73 61 67 76 68 86 82 79 87 86 87 88 89 92 92 91 90 86 86 87 78 82 81 81
62 74 78 73 77 76 75 64 66 70 61 70 67 72 73 70 71 74 77 78 74 84 78 84 85 88 89 91 92 91 87 94 94 93 94 93 91 94 91 85 82 78 80
74 78 78 78 76 77 67 71 71 70 69 71 73 74 76 78 80 78 85 84 91 82 95 91 96 92 87 95 95 97 96 97 95 96 96 103 99 95 91 84 81 82 82
79 79 79 78 78 68 65 67 74 73 76 74 76 81 81 82 76 89 89 89 90 80 88 91 91 89 102 103 105 103 103 97 95 97 102 100 98 90 82 84 82 82 82
82 81 80 77 66 73 73 75 74 76 80 80 85 83 88 77 90 99 99 75 94 101 98 103 94 97 105 107 110 108 103 101 107 101 103 102 90 86 86 82 81 82 82
82 82 73 73 77 72 73 78 80 83 85 87 80 97 84 99 100 90 81 96 111 110 111 109 108 108 106 109 112 113 116 110 105 101 102 88 89 89 85 82 81 81 81
83 72 75 75 79 79 81 83 86 87 84 87 95 99 102 106 88 113 103 114 113 111 116 115 111 110 113 111 112 118 122 117 102 101 88 91 90 80 82 81 78 78 78
72 75 80 79 84 87 89 89 81 89 93 94 103 105 108 97 117 115 84 122 107 123 118 120 118 115 111 112 110 107 104 100 98 95 94 93 88 84 81 76 76 76 74
78 81 87 86 89 92 93 87 79 102 103 102 88 108 113 113 119 121 111 121 123 123 125 127 133 117 114 123 123 108 110 107 101 100 99 89 90 86 81 75 74 72 71
86 89 90 94 94 94 88 96 101 98 62 87 117 121 114 121 122 124 124 123 121 127 131 126 121 120 119 117 116 117 109 102 98 95 93 89 84 84 79 75 75 71 69
90 89 96 98 99 106 111 114 108 66 112 114 117 122 122 125 126 129 130 132 128 124 121 121 121 119 120 122 120 119 113 110 106 98 94 90 85 80 76 75 73 69 68
Wind_Direction
296 295 295 299 301 299 310 299 311 315 290 317 308 305 299 310 300 313 316 317 319 319 332 319 292 286 286 306 319 284 276 272 270 266 265 264 262 259 257 258 259 258 260
295 296 297 299 298 302 304 295 294 309 319 310 304 313 320 316 314 319 316 322 321 326 322 318 316 312 313 327 319 307 298 308 302 293 294 289 294 279 261 259 256 256 254
293 295 300 302 299 297 308 292 318 319 309 308 305 322 317 320 319 318 303 319 317 316 316 309 306 302 299 299 299 285 285 294 300 304 298 292 300 290 284 282 273 255 257
294 298 300 302 297 297 304 316 317 310 308 314 319 322 320 319 317 314 318 314 304 307 307 298 297 293 291 289 287 285 282 278 275 278 285 283 276 275 287 283 270 267 265
296 299 295 296 302 311 314 315 318 310 312 314 322 320 319 314 318 318 313 311 303 306 301 301 294 294 292 289 288 286 285 282 278 274 273 273 270 269 266 265 268 271 271
291 294 297 302 309 311 314 316 314 311 314 320 321 315 311 313 294 309 307 305 303 303 296 299 298 295 293 287 286 285 285 282 280 277 276 275 273 270 270 265 265 264 262
293 295 305 306 308 311 313 317 311 318 320 320 310 312 302 294 303 300 300 301 299 300 302 297 286 285 283 280 280 281 282 279 281 277 275 274 273 271 268 266 265 264 262
299 300 303 304 307 310 315 313 317 317 319 306 307 296 294 295 299 298 301 303 303 302 298 301 292 291 298 284 283 288 286 275 277 277 283 273 273 270 267 264 264 265 263
297 299 302 303 306 309 312 315 316 318 314 298 288 299 299 296 297 297 299 300 300 299 304 298 297 295 295 296 288 287 291 286 274 275 272 270 270 268 272 278 263 263 264
297 299 300 304 306 311 312 313 319 317 307 300 281 291 296 300 298 297 302 302 302 302 300 301 303 302 302 299 297 294 296 297 298 294 292 272 273 276 278 269 275 260 264
296 297 301 305 308 309 314 317 317 317 302 303 301 296 307 306 303 304 303 305 303 301 301 305 306 296 305 304 304 298 301 301 298 299 297 293 288 288 287 286 267 279 265
295 300 301 306 309 312 313 315 315 313 311 309 306 306 307 304 304 306 302 302 302 303 305 301 308 302 307 307 306 304 305 302 302 293 300 297 296 292 292 289 286 284 281
298 299 304 308 312 313 313 312 314 305 310 305 307 306 299 297 300 299 302 305 306 303 307 295 302 309 308 305 305 302 300 301 303 299 292 296 295 290 292 290 289 283 286
298 302 306 300 311 310 310 309 312 304 307 298 305 297 295 299 303 306 306 307 300 305 291 309 303 308 304 300 298 301 303 304 301 299 286 295 294 292 291 290 288 285 283
301 304 300 307 307 308 308 308 308 302 305 302 299 299 304 304 310 306 307 298 312 307 307 289 294 302 302 303 302 301 302 295 297 293 294 294 292 292 291 289 288 287 285
303 292 294 306 305 306 306 308 305 304 298 302 304 304 305 307 298 309 308 311 303 308 308 297 307 307 304 303 296 295 294 293 293 292 294 293 288 292 292 282 290 287 285
288 305 304 302 304 305 306 294 298 306 293 305 303 307 305 300 309 309 308 306 308 306 297 298 306 297 298 303 299 298 296 295 294 293 292 292 293 293 295 292 291 287 286
302 302 303 304 303 303 296 302 302 300 299 302 304 305 305 306 300 307 304 305 301 307 305 299 299 301 301 299 297 295 295 295 294 294 294 295 295 297 295 291 289 287 285
300 302 303 302 302 296 291 294 302 301 306 301 300 301 301 307 305 302 294 297 304 302 299 298 297 295 296 296 295 294 293 292 292 293 296 295 296 294 291 291 287 285 284
301 301 301 300 295 297 298 302 297 302 303 302 302 305 299 301 306 299 298 295 300 298 302 298 299 293 293 293 294 291 291 292 295 294 295 296 291 292 292 284 283 282 282
300 301 297 296 299 296 300 301 301 303 303 304 303 301 299 299 293 303 301 302 295 293 296 291 293 293 292 292 292 292 295 292 293 294 296 292 292 292 288 282 282 281 281
301 294 296 301 300 301 301 301 302 305 304 296 298 300 299 297 305 298 303 293 297 298 293 292 292 291 291 291 292 297 296 295 293 293 292 291 289 281 283 286 281 281 282
294 297 298 299 300 301 301 301 303 304 303 305 299 300 301 304 294 289 300 296 299 292 293 293 292 292 292 292 292 292 292 291 292 290 292 292 287 288 283 281 279 280 282
296 297 299 299 299 299 299 304 302 302 300 298 306 288 289 294 293 288 294 293 290 290 291 291 292 292 293 292 293 290 292 292 290 291 289 286 288 286 282 282 282 281 281
297 295 297 298 297 301 306 305 294 304 309 298 299 298 291 289 289 290 290 289 291 291 291 291 292 293 293 293 293 291 289 286 285 284 283 285 280 280 280 280 279 279 279
294 302 297 300 301 300 297 299 296 297 291 290 290 291 291 291 291 292 293 292 292 292 293 293 293 294 294 293 291 289 289 288 285 284 282 279 277 276 275 275 276 276 276